Location: *
(42.5628°N, 2.3633°E)
Time: 19:10:25
(UTC+00:00)

Cosmos 2369 Rocket - Pass Details

Date: 30 March 2020
Orbit: 829 x 852 km, 71.0° (Epoch: 31 May)

Event Time Altitude Azimuth Distance (km) Brightness Sun altitude
Rises 19:32:20 0° 342° (NNW) 3,425 5.9 -14.7°
Reaches altitude 10° 19:35:02 10° 351° (N) 2,484 5.0 -15.2°
Maximum altitude 19:40:13 35° 56° (ENE) 1,353 3.0 -16.1°
Enters shadow 19:42:29 25° 98° (E) 1,631 3.1 -16.5°
